Time,TemperatureF,DewpointF,PressureIn,WindDirection,WindDirectionDegrees,WindSpeedMPH,WindSpeedGustMPH,Humidity,HourlyPrecipIn,Conditions,Clouds,dailyrainin,SoftwareType,DateUTC
2013-10-29 00:00:00,35.4,33.6,30.32,ESE,117,0.0,0.0,93,0.00,,,0.00,meteohub,2013-10-29 04:00:00,
2013-10-29 00:01:00,35.4,33.6,30.32,ESE,117,0.0,0.0,93,0.00,,,0.00,meteohub,2013-10-29 04:01:00,
2013-10-29 00:02:00,35.4,33.6,30.32,ESE,117,0.0,0.0,93,0.00,,,0.00,meteohub,2013-10-29 04:02:00,
2013-10-29 00:04:00,35.4,33.6,30.32,ESE,117,0.0,0.0,93,0.00,,,0.00,meteohub,2013-10-29 04:04:00,
2013-10-29 00:05:00,35.2,33.4,30.32,ESE,117,0.0,0.0,93,0.00,,,0.00,meteohub,2013-10-29 04:05:00,
2013-10-29 00:10:00,35.1,33.3,30.32,ESE,117,0.0,0.0,93,-99.99,,,0.00,meteohub,2013-10-29 04:10:00,
2013-10-29 00:15:00,35.1,33.3,30.32,ESE,117,0.0,0.0,93,0.00,,,0.00,meteohub,2013-10-29 04:15:00,
2013-10-29 00:20:00,34.9,33.1,30.32,ESE,117,0.0,0.0,93,0.00,,,0.00,meteohub,2013-10-29 04:20:00,
2013-10-29 00:25:00,34.7,32.9,30.33,ESE,117,0.0,0.0,93,0.00,,,0.00,meteohub,2013-10-29 04:25:00,
2013-10-29 00:30:00,34.9,33.3,30.32,ESE,117,0.0,0.0,94,0.00,,,0.00,meteohub,2013-10-29 04:30:00,
2013-10-29 00:35:00,34.9,33.3,30.32,ESE,117,0.0,0.0,94,0.00,,,0.00,meteohub,2013-10-29 04:35:00,
2013-10-29 00:40:00,35.1,33.4,30.32,ESE,117,0.0,0.0,94,0.00,,,0.00,meteohub,2013-10-29 04:40:00,
2013-10-29 00:45:00,35.1,33.4,30.32,ESE,117,0.0,0.0,94,0.00,,,0.00,meteohub,2013-10-29 04:45:00,
2013-10-29 00:50:00,34.9,33.3,30.33,ESE,117,0.0,0.0,94,0.00,,,0.00,meteohub,2013-10-29 04:50:00,
2013-10-29 00:55:00,34.5,32.7,30.33,ESE,117,0.0,0.0,93,0.00,,,0.00,meteohub,2013-10-29 04:55:00,
2013-10-29 01:01:00,34.7,33.1,30.33,ESE,117,0.0,0.0,94,0.00,,,0.00,meteohub,2013-10-29 05:01:00,
2013-10-29 01:06:00,35.1,33.4,30.33,ESE,117,0.0,0.0,94,0.00,,,0.00,meteohub,2013-10-29 05:06:00,
2013-10-29 01:11:00,35.2,34.0,30.33,ESE,117,0.0,0.0,95,0.00,,,0.00,meteohub,2013-10-29 05:11:00,
2013-10-29 01:16:00,35.2,34.0,30.33,ESE,117,0.0,0.0,95,0.00,,,0.00,meteohub,2013-10-29 05:16:00,
2013-10-29 01:21:00,35.6,34.3,30.33,ESE,117,0.0,0.0,95,0.00,,,0.00,meteohub,2013-10-29 05:21:00,
2013-10-29 01:26:00,36.1,34.9,30.33,ESE,117,0.0,0.0,95,0.00,,,0.00,meteohub,2013-10-29 05:26:00,
2013-10-29 01:31:00,35.6,34.0,30.33,ESE,119,0.0,0.0,94,0.00,,,0.00,meteohub,2013-10-29 05:31:00,
2013-10-29 01:36:00,35.1,33.3,30.33,ESE,119,0.0,0.0,93,0.00,,,0.00,meteohub,2013-10-29 05:36:00,
2013-10-29 01:41:00,34.9,33.3,30.33,ESE,118,0.0,0.0,94,0.00,,,0.00,meteohub,2013-10-29 05:41:00,
2013-10-29 01:46:00,34.9,33.3,30.33,ESE,118,0.0,0.0,94,0.00,,,0.00,meteohub,2013-10-29 05:46:00,
2013-10-29 01:51:00,34.9,33.6,30.33,ESE,116,0.0,0.0,95,0.00,,,0.00,meteohub,2013-10-29 05:51:00,
2013-10-29 01:56:00,34.7,33.1,30.34,North,0,0.0,0.0,94,0.00,,,0.00,meteohub,2013-10-29 05:56:00,
2013-10-29 02:01:00,34.2,32.5,30.34,SSE,168,0.0,1.0,94,0.00,,,0.00,meteohub,2013-10-29 06:01:00,
2013-10-29 02:06:00,34.3,33.1,30.34,SSE,168,0.0,1.0,95,0.00,,,0.00,meteohub,2013-10-29 06:06:00,
2013-10-29 02:12:00,34.5,33.3,30.34,SSE,168,0.0,1.0,95,0.00,,,0.00,meteohub,2013-10-29 06:12:00,
2013-10-29 02:17:00,34.5,33.3,30.35,SSE,167,0.0,0.0,95,0.00,,,0.00,meteohub,2013-10-29 06:17:00,
2013-10-29 02:22:00,34.5,33.3,30.35,SSE,168,0.0,0.0,95,0.00,,,0.00,meteohub,2013-10-29 06:22:00,
2013-10-29 02:27:00,34.7,33.4,30.34,SSE,168,0.0,0.0,95,0.00,,,0.00,meteohub,2013-10-29 06:27:00,
2013-10-29 02:32:00,34.9,33.6,30.34,SSE,167,0.0,0.0,95,0.00,,,0.00,meteohub,2013-10-29 06:32:00,
2013-10-29 02:37:00,34.9,33.6,30.34,SSE,168,0.0,0.0,95,0.00,,,0.00,meteohub,2013-10-29 06:37:00,
2013-10-29 02:42:00,35.1,33.8,30.35,SSE,168,0.0,0.0,95,0.00,,,0.00,meteohub,2013-10-29 06:42:00,
2013-10-29 02:47:00,34.9,33.6,30.35,SSE,168,0.0,0.0,95,0.00,,,0.00,meteohub,2013-10-29 06:47:00,
2013-10-29 02:52:00,34.5,33.3,30.35,SSE,167,0.0,0.0,95,0.00,,,0.00,meteohub,2013-10-29 06:52:00,
2013-10-29 02:57:00,34.0,32.4,30.35,SSE,168,0.0,0.0,94,0.00,,,0.00,meteohub,2013-10-29 06:57:00,
2013-10-29 03:02:00,33.8,32.5,30.35,SSE,168,0.0,0.0,95,0.00,,,0.00,meteohub,2013-10-29 07:02:00,
2013-10-29 03:08:00,33.6,32.4,30.35,SSE,167,0.0,0.0,95,0.00,,,0.00,meteohub,2013-10-29 07:08:00,
2013-10-29 03:13:00,34.0,32.7,30.34,SSE,167,0.0,0.0,95,0.00,,,0.00,meteohub,2013-10-29 07:13:00,
2013-10-29 03:18:00,33.6,32.4,30.35,SSE,168,0.0,0.0,95,0.00,,,0.00,meteohub,2013-10-29 07:18:00,
2013-10-29 03:23:00,33.3,31.6,30.35,SSE,168,0.0,0.0,94,0.00,,,0.00,meteohub,2013-10-29 07:23:00,
2013-10-29 03:28:00,33.1,31.8,30.35,SSE,168,0.0,0.0,95,0.00,,,0.00,meteohub,2013-10-29 07:28:00,
2013-10-29 03:33:00,33.1,31.8,30.35,SSE,168,0.0,0.0,95,0.00,,,0.00,meteohub,2013-10-29 07:33:00,
2013-10-29 03:38:00,32.9,31.6,30.35,SSE,168,0.0,0.0,95,0.00,,,0.00,meteohub,2013-10-29 07:38:00,
2013-10-29 03:43:00,32.7,31.5,30.35,SSE,167,0.0,0.0,95,0.00,,,0.00,meteohub,2013-10-29 07:43:00,
2013-10-29 03:48:00,32.9,31.6,30.35,SSE,168,0.0,0.0,95,0.00,,,0.00,meteohub,2013-10-29 07:48:00,
2013-10-29 03:53:00,33.1,32.0,30.35,SSE,167,0.0,0.0,96,0.00,,,0.00,meteohub,2013-10-29 07:53:00,
2013-10-29 03:58:00,32.7,31.6,30.35,SSE,168,0.0,0.0,96,0.00,,,0.00,meteohub,2013-10-29 07:58:00,
2013-10-29 04:03:00,32.7,31.5,30.36,SSE,167,0.0,0.0,95,0.00,,,0.00,meteohub,2013-10-29 08:03:00,
2013-10-29 04:08:00,32.5,31.3,30.36,SSE,168,0.0,0.0,95,0.00,,,0.00,meteohub,2013-10-29 08:08:00,
2013-10-29 04:13:00,32.5,31.5,30.35,SSE,168,0.0,0.0,96,0.00,,,0.00,meteohub,2013-10-29 08:13:00,
2013-10-29 04:19:00,32.7,31.6,30.35,SSE,168,0.0,0.0,96,0.00,,,0.00,meteohub,2013-10-29 08:19:00,
2013-10-29 04:24:00,32.5,31.5,30.35,SSE,167,0.0,0.0,96,0.00,,,0.00,meteohub,2013-10-29 08:24:00,
2013-10-29 04:29:00,32.2,30.9,30.35,SSE,167,0.0,0.0,95,0.00,,,0.00,meteohub,2013-10-29 08:29:00,
2013-10-29 04:34:00,31.6,30.4,30.35,SSE,167,0.0,0.0,95,0.00,,,0.00,meteohub,2013-10-29 08:34:00,
2013-10-29 04:39:00,31.3,30.0,30.35,SSE,168,0.0,0.0,95,0.00,,,0.00,meteohub,2013-10-29 08:39:00,
2013-10-29 04:44:00,31.5,30.2,30.35,SSE,168,0.0,0.0,95,0.00,,,0.00,meteohub,2013-10-29 08:44:00,
2013-10-29 04:49:00,31.6,30.6,30.36,SSE,167,0.0,0.0,96,0.00,,,0.00,meteohub,2013-10-29 08:49:00,
2013-10-29 04:54:00,31.5,30.4,30.35,SSE,168,0.0,0.0,96,0.00,,,0.00,meteohub,2013-10-29 08:54:00,
2013-10-29 04:59:00,31.3,30.2,30.35,SSE,167,0.0,0.0,96,0.00,,,0.00,meteohub,2013-10-29 08:59:00,
2013-10-29 05:04:00,31.1,30.0,30.35,SSE,167,0.0,0.0,96,0.00,,,0.00,meteohub,2013-10-29 09:04:00,
2013-10-29 05:09:00,30.7,29.5,30.36,SSE,168,0.0,0.0,95,0.00,,,0.00,meteohub,2013-10-29 09:09:00,
2013-10-29 05:14:00,30.6,29.3,30.36,SSE,167,0.0,0.0,95,0.00,,,0.00,meteohub,2013-10-29 09:14:00,
2013-10-29 05:19:00,30.7,29.7,30.36,SSE,167,0.0,0.0,96,0.00,,,0.00,meteohub,2013-10-29 09:19:00,
2013-10-29 05:24:00,30.7,29.7,30.36,SSE,168,0.0,0.0,96,0.00,,,0.00,meteohub,2013-10-29 09:24:00,
2013-10-29 05:29:00,30.9,29.8,30.36,SSE,168,0.0,0.0,96,0.00,,,0.00,meteohub,2013-10-29 09:29:00,
2013-10-29 05:35:00,31.1,30.0,30.36,SSE,168,0.0,0.0,96,0.00,,,0.00,meteohub,2013-10-29 09:35:00,
2013-10-29 05:40:00,31.3,30.2,30.37,SSE,167,0.0,0.0,96,0.00,,,0.00,meteohub,2013-10-29 09:40:00,
2013-10-29 05:45:00,31.3,30.2,30.37,SSE,168,0.0,0.0,96,0.00,,,0.00,meteohub,2013-10-29 09:45:00,
2013-10-29 05:50:00,31.1,30.0,30.37,SSE,168,0.0,0.0,96,0.00,,,0.00,meteohub,2013-10-29 09:50:00,
2013-10-29 05:55:00,30.9,29.8,30.38,SSE,167,0.0,0.0,96,0.00,,,0.00,meteohub,2013-10-29 09:55:00,
2013-10-29 06:00:00,30.9,29.8,30.38,SSE,168,0.0,0.0,96,0.00,,,0.00,meteohub,2013-10-29 10:00:00,
2013-10-29 06:05:00,30.7,29.7,30.38,SSE,167,0.0,0.0,96,0.00,,,0.00,meteohub,2013-10-29 10:05:00,
2013-10-29 06:10:00,31.1,30.0,30.38,SSE,167,0.0,0.0,96,0.00,,,0.00,meteohub,2013-10-29 10:10:00,
2013-10-29 06:15:00,30.9,29.8,30.38,SSE,167,0.0,0.0,96,0.00,,,0.00,meteohub,2013-10-29 10:15:00,
2013-10-29 06:20:00,30.7,29.7,30.38,SSE,168,0.0,0.0,96,0.00,,,0.00,meteohub,2013-10-29 10:20:00,
2013-10-29 06:25:00,30.6,29.5,30.38,SSE,167,0.0,0.0,96,0.00,,,0.00,meteohub,2013-10-29 10:25:00,
2013-10-29 06:30:00,30.6,29.5,30.38,SSE,167,0.0,0.0,96,0.00,,,0.00,meteohub,2013-10-29 10:30:00,
2013-10-29 06:35:00,30.4,29.3,30.38,SSE,167,0.0,0.0,96,0.00,,,0.00,meteohub,2013-10-29 10:35:00,
2013-10-29 06:40:00,30.4,29.3,30.38,SSE,168,0.0,0.0,96,0.00,,,0.00,meteohub,2013-10-29 10:40:00,
2013-10-29 06:46:00,30.0,28.9,30.38,SSE,167,0.0,0.0,96,0.00,,,0.00,meteohub,2013-10-29 10:46:00,
2013-10-29 06:51:00,29.8,28.8,30.38,SSE,168,0.0,0.0,96,0.00,,,0.00,meteohub,2013-10-29 10:51:00,
2013-10-29 06:56:00,29.5,28.2,30.38,SSE,167,0.0,0.0,95,0.00,,,0.00,meteohub,2013-10-29 10:56:00,
2013-10-29 07:01:00,29.1,27.9,30.38,SSE,167,0.0,0.0,95,0.00,,,0.00,meteohub,2013-10-29 11:01:00,
2013-10-29 07:06:00,28.9,27.9,30.38,SSE,167,0.0,0.0,96,0.00,,,0.00,meteohub,2013-10-29 11:06:00,
2013-10-29 07:11:00,28.9,27.9,30.38,SSE,167,0.0,0.0,96,0.00,,,0.00,meteohub,2013-10-29 11:11:00,
2013-10-29 07:16:00,28.8,27.7,30.38,SSE,168,0.0,0.0,96,0.00,,,0.00,meteohub,2013-10-29 11:16:00,
2013-10-29 07:21:00,28.9,27.9,30.39,SSE,168,0.0,0.0,96,0.00,,,0.00,meteohub,2013-10-29 11:21:00,
2013-10-29 07:26:00,28.8,27.7,30.38,SSE,167,0.0,0.0,96,0.00,,,0.00,meteohub,2013-10-29 11:26:00,
2013-10-29 07:31:00,28.8,27.7,30.38,SSE,167,0.0,0.0,96,0.00,,,0.00,meteohub,2013-10-29 11:31:00,
2013-10-29 07:36:00,28.8,27.7,30.38,SSE,167,0.0,0.0,96,0.00,,,0.00,meteohub,2013-10-29 11:36:00,
2013-10-29 07:41:00,28.9,27.9,30.38,SSE,167,0.0,0.0,96,0.00,,,0.00,meteohub,2013-10-29 11:41:00,
2013-10-29 07:47:00,28.9,27.9,30.38,SSE,168,0.0,0.0,96,0.00,,,0.00,meteohub,2013-10-29 11:47:00,
2013-10-29 07:52:00,28.8,27.7,30.38,SSE,167,0.0,0.0,96,0.00,,,0.00,meteohub,2013-10-29 11:52:00,
2013-10-29 07:57:00,28.6,27.5,30.38,SSE,167,0.0,0.0,96,0.00,,,0.00,meteohub,2013-10-29 11:57:00,
2013-10-29 08:02:00,28.6,27.5,30.38,SSE,167,0.0,0.0,96,0.00,,,0.00,meteohub,2013-10-29 12:02:00,
2013-10-29 08:07:00,28.6,27.5,30.38,SSE,168,0.0,0.0,96,0.00,,,0.00,meteohub,2013-10-29 12:07:00,
2013-10-29 08:12:00,28.6,27.5,30.39,SSE,167,0.0,0.0,96,0.00,,,0.00,meteohub,2013-10-29 12:12:00,
2013-10-29 08:17:00,28.6,27.5,30.39,SSE,167,0.0,0.0,96,0.00,,,0.00,meteohub,2013-10-29 12:17:00,
2013-10-29 08:22:00,28.9,27.9,30.39,SSE,167,0.0,0.0,96,0.00,,,0.00,meteohub,2013-10-29 12:22:00,
2013-10-29 08:27:00,29.1,28.0,30.39,SSE,167,0.0,0.0,96,0.00,,,0.00,meteohub,2013-10-29 12:27:00,
2013-10-29 08:32:00,29.1,28.0,30.39,SSE,167,0.0,0.0,96,0.00,,,0.00,meteohub,2013-10-29 12:32:00,
2013-10-29 08:37:00,29.1,28.0,30.39,SSE,168,0.0,0.0,96,0.00,,,0.00,meteohub,2013-10-29 12:37:00,
2013-10-29 08:42:00,29.3,28.2,30.40,SSE,167,0.0,0.0,96,0.00,,,0.00,meteohub,2013-10-29 12:42:00,
2013-10-29 08:47:00,29.5,28.4,30.40,SSE,168,0.0,0.0,96,0.00,,,0.00,meteohub,2013-10-29 12:47:00,
2013-10-29 08:52:00,29.7,28.6,30.40,SSE,168,0.0,0.0,96,0.00,,,0.00,meteohub,2013-10-29 12:52:00,
2013-10-29 08:57:00,30.0,28.9,30.41,SSE,167,0.0,0.0,96,0.00,,,0.00,meteohub,2013-10-29 12:57:00,
2013-10-29 09:03:00,30.7,30.0,30.41,SSE,168,0.0,0.0,97,0.00,,,0.00,meteohub,2013-10-29 13:03:00,
2013-10-29 09:08:00,31.8,31.1,30.41,SSE,168,0.0,0.0,97,0.00,,,0.00,meteohub,2013-10-29 13:08:00,
2013-10-29 09:13:00,32.7,32.0,30.41,SSE,167,0.0,0.0,97,0.00,,,0.00,meteohub,2013-10-29 13:13:00,
2013-10-29 09:18:00,32.5,31.8,30.42,SSE,168,0.0,0.0,97,0.00,,,0.00,meteohub,2013-10-29 13:18:00,
2013-10-29 09:23:00,32.5,31.8,30.42,SSE,167,0.0,0.0,97,0.00,,,0.00,meteohub,2013-10-29 13:23:00,
2013-10-29 09:28:00,33.4,32.7,30.42,SSE,167,0.0,0.0,97,0.00,,,0.00,meteohub,2013-10-29 13:28:00,
2013-10-29 09:33:00,34.9,34.2,30.42,SSE,167,0.0,0.0,97,0.00,,,0.00,meteohub,2013-10-29 13:33:00,
2013-10-29 09:38:00,36.0,35.2,30.42,SSE,167,0.0,0.0,97,0.00,,,0.00,meteohub,2013-10-29 13:38:00,
2013-10-29 09:43:00,36.5,35.8,30.42,SSE,167,0.0,0.0,97,0.00,,,0.00,meteohub,2013-10-29 13:43:00,
2013-10-29 09:48:00,36.7,36.0,30.42,SSW,203,0.0,0.0,97,0.00,,,0.00,meteohub,2013-10-29 13:48:00,
2013-10-29 09:54:00,36.7,36.0,30.42,WSW,240,0.0,0.0,97,0.00,,,0.00,meteohub,2013-10-29 13:54:00,
2013-10-29 09:59:00,37.2,36.5,30.41,WNW,285,0.0,1.0,97,0.00,,,0.00,meteohub,2013-10-29 13:59:00,
2013-10-29 10:04:00,37.8,37.0,30.41,West,281,0.0,1.0,97,0.00,,,0.00,meteohub,2013-10-29 14:04:00,
2013-10-29 10:09:00,38.5,37.4,30.41,West,281,0.0,1.0,96,0.00,,,0.00,meteohub,2013-10-29 14:09:00,
2013-10-29 10:14:00,39.0,37.9,30.41,West,271,1.0,1.0,96,0.00,,,0.00,meteohub,2013-10-29 14:14:00,
2013-10-29 10:19:00,39.7,38.5,30.41,West,270,0.0,1.0,95,0.00,,,0.00,meteohub,2013-10-29 14:19:00,
2013-10-29 10:24:00,40.6,39.0,30.41,WNW,283,0.0,1.0,94,0.00,,,0.00,meteohub,2013-10-29 14:24:00,
2013-10-29 10:29:00,41.7,39.6,30.40,West,281,0.0,1.0,92,0.00,,,0.00,meteohub,2013-10-29 14:29:00,
2013-10-29 10:34:00,42.3,39.2,30.40,WSW,246,0.0,1.0,89,0.00,,,0.00,meteohub,2013-10-29 14:34:00,
2013-10-29 10:39:00,42.4,38.8,30.40,West,263,1.0,1.0,87,0.00,,,0.00,meteohub,2013-10-29 14:39:00,
2013-10-29 10:44:00,43.2,39.2,30.41,WSW,251,1.0,1.0,86,0.00,,,0.00,meteohub,2013-10-29 14:44:00,
2013-10-29 10:49:00,43.5,39.0,30.41,WSW,238,1.0,2.0,84,0.00,,,0.00,meteohub,2013-10-29 14:49:00,
2013-10-29 10:54:00,44.1,39.9,30.40,WSW,243,0.0,2.0,85,0.00,,,0.00,meteohub,2013-10-29 14:54:00,
2013-10-29 11:00:00,44.8,40.3,30.40,West,271,0.0,2.0,84,0.00,,,0.00,meteohub,2013-10-29 15:00:00,
2013-10-29 11:05:00,45.7,40.8,30.40,West,274,0.0,2.0,83,0.00,,,0.00,meteohub,2013-10-29 15:05:00,
2013-10-29 11:10:00,46.2,40.5,30.40,West,276,1.0,1.0,80,0.00,,,0.00,meteohub,2013-10-29 15:10:00,
2013-10-29 11:15:00,46.9,40.8,30.40,West,267,0.0,2.0,79,0.00,,,0.00,meteohub,2013-10-29 15:15:00,
2013-10-29 11:20:00,47.7,40.5,30.40,SW,218,0.0,2.0,76,0.00,,,0.00,meteohub,2013-10-29 15:20:00,
2013-10-29 11:25:00,48.4,40.1,30.40,WSW,248,1.0,2.0,73,0.00,,,0.00,meteohub,2013-10-29 15:25:00,
2013-10-29 11:30:00,48.7,40.8,30.40,West,271,0.0,2.0,74,0.00,,,0.00,meteohub,2013-10-29 15:30:00,
2013-10-29 11:35:00,49.5,40.8,30.40,WNW,285,1.0,2.0,72,0.00,,,0.00,meteohub,2013-10-29 15:35:00,
2013-10-29 11:40:00,50.0,40.6,30.40,West,281,1.0,2.0,70,0.00,,,0.00,meteohub,2013-10-29 15:40:00,
2013-10-29 11:45:00,50.5,39.2,30.40,WSW,246,0.0,2.0,65,0.00,,,0.00,meteohub,2013-10-29 15:45:00,
2013-10-29 11:50:00,51.3,39.0,30.41,WSW,242,0.0,2.0,63,0.00,,,0.00,meteohub,2013-10-29 15:50:00,
2013-10-29 11:55:00,51.6,40.3,30.40,West,262,0.0,2.0,65,0.00,,,0.00,meteohub,2013-10-29 15:55:00,
2013-10-29 12:00:00,52.0,39.7,30.40,West,262,1.0,1.0,63,0.00,,,0.00,meteohub,2013-10-29 16:00:00,
2013-10-29 12:05:00,52.3,39.7,30.40,West,276,1.0,1.0,62,0.00,,,0.00,meteohub,2013-10-29 16:05:00,
2013-10-29 12:11:00,52.5,38.7,30.40,SW,236,0.0,1.0,59,0.00,,,0.00,meteohub,2013-10-29 16:11:00,
2013-10-29 12:16:00,53.1,40.8,30.40,WSW,253,1.0,1.0,63,0.00,,,0.00,meteohub,2013-10-29 16:16:00,
2013-10-29 12:21:00,53.6,40.1,30.40,WSW,238,0.0,1.0,60,0.00,,,0.00,meteohub,2013-10-29 16:21:00,
2013-10-29 12:26:00,54.3,40.8,30.40,SSE,150,0.0,1.0,60,0.00,,,0.00,meteohub,2013-10-29 16:26:00,
2013-10-29 12:31:00,55.4,41.4,30.40,SW,217,0.0,1.0,59,0.00,,,0.00,meteohub,2013-10-29 16:31:00,
2013-10-29 12:36:00,55.6,41.5,30.40,WSW,243,0.0,1.0,59,0.00,,,0.00,meteohub,2013-10-29 16:36:00,
2013-10-29 12:41:00,55.9,41.4,30.39,SW,229,2.0,2.0,58,0.00,,,0.00,meteohub,2013-10-29 16:41:00,
2013-10-29 12:46:00,55.9,40.5,30.39,West,265,2.0,2.0,56,0.00,,,0.00,meteohub,2013-10-29 16:46:00,
2013-10-29 12:51:00,55.8,40.8,30.38,SW,236,1.0,2.0,57,0.00,,,0.00,meteohub,2013-10-29 16:51:00,
2013-10-29 12:56:00,56.5,41.4,30.38,SSW,200,0.0,2.0,57,0.00,,,0.00,meteohub,2013-10-29 16:56:00,
2013-10-29 13:01:00,57.4,40.8,30.38,West,273,1.0,2.0,54,0.00,,,0.00,meteohub,2013-10-29 17:01:00,
2013-10-29 13:06:00,57.6,40.1,30.38,WNW,284,0.0,2.0,52,0.00,,,0.00,meteohub,2013-10-29 17:06:00,
2013-10-29 13:11:00,58.3,40.3,30.38,WNW,291,0.0,2.0,51,0.00,,,0.00,meteohub,2013-10-29 17:11:00,
2013-10-29 13:16:00,59.0,40.5,30.37,NE,47,0.0,2.0,50,0.00,,,0.00,meteohub,2013-10-29 17:16:00,
2013-10-29 13:22:00,59.2,40.6,30.37,SSE,158,0.0,2.0,50,0.00,,,0.00,meteohub,2013-10-29 17:22:00,
2013-10-29 13:27:00,59.0,40.8,30.37,NW,307,0.0,2.0,51,0.00,,,0.00,meteohub,2013-10-29 17:27:00,
2013-10-29 13:32:00,58.8,40.8,30.37,West,281,2.0,3.0,51,0.00,,,0.00,meteohub,2013-10-29 17:32:00,
2013-10-29 13:37:00,58.3,38.7,30.36,SW,218,2.0,3.0,48,0.00,,,0.00,meteohub,2013-10-29 17:37:00,
2013-10-29 13:42:00,58.6,39.0,30.36,NNW,328,1.0,5.0,48,0.00,,,0.00,meteohub,2013-10-29 17:42:00,
2013-10-29 13:47:00,58.8,39.2,30.36,West,275,1.0,5.0,48,0.00,,,0.00,meteohub,2013-10-29 17:47:00,
2013-10-29 13:52:00,59.0,38.3,30.36,NW,326,0.0,5.0,46,0.00,,,0.00,meteohub,2013-10-29 17:52:00,
2013-10-29 13:57:00,59.5,38.7,30.35,NNW,333,0.0,2.0,46,0.00,,,0.00,meteohub,2013-10-29 17:57:00,
2013-10-29 14:02:00,59.7,38.8,30.35,SSE,163,0.0,2.0,46,0.00,,,0.00,meteohub,2013-10-29 18:02:00,
2013-10-29 14:07:00,59.9,38.5,30.35,East,79,0.0,3.0,45,0.00,,,0.00,meteohub,2013-10-29 18:07:00,
2013-10-29 14:12:00,60.4,39.0,30.35,West,269,1.0,3.0,45,0.00,,,0.00,meteohub,2013-10-29 18:12:00,
2013-10-29 14:17:00,60.3,38.3,30.35,West,262,2.0,3.0,44,0.00,,,0.00,meteohub,2013-10-29 18:17:00,
2013-10-29 14:22:00,59.9,37.4,30.35,WSW,251,1.0,3.0,43,0.00,,,0.00,meteohub,2013-10-29 18:22:00,
2013-10-29 14:27:00,59.7,38.3,30.34,South,169,1.0,3.0,45,0.00,,,0.00,meteohub,2013-10-29 18:27:00,
2013-10-29 14:32:00,59.5,38.1,30.34,SE,132,2.0,3.0,45,0.00,,,0.00,meteohub,2013-10-29 18:32:00,
2013-10-29 14:38:00,59.7,38.8,30.34,WSW,256,2.0,3.0,46,0.00,,,0.00,meteohub,2013-10-29 18:38:00,
2013-10-29 14:43:00,59.5,38.7,30.34,WNW,284,0.0,3.0,46,0.00,,,0.00,meteohub,2013-10-29 18:43:00,
2013-10-29 14:48:00,59.7,37.8,30.34,West,262,3.0,3.0,44,0.00,,,0.00,meteohub,2013-10-29 18:48:00,
2013-10-29 14:53:00,59.7,37.2,30.34,West,275,3.0,3.0,43,0.00,,,0.00,meteohub,2013-10-29 18:53:00,
2013-10-29 14:58:00,59.5,38.1,30.34,WNW,288,1.0,3.0,45,0.00,,,0.00,meteohub,2013-10-29 18:58:00,
2013-10-29 15:03:00,59.5,37.0,30.33,West,276,1.0,4.0,43,0.00,,,0.00,meteohub,2013-10-29 19:03:00,
2013-10-29 15:08:00,59.5,35.2,30.33,SW,229,0.0,4.0,40,0.00,,,0.00,meteohub,2013-10-29 19:08:00,
2013-10-29 15:13:00,59.7,36.5,30.33,West,269,0.0,4.0,42,0.00,,,0.00,meteohub,2013-10-29 19:13:00,
2013-10-29 15:18:00,59.7,35.4,30.32,WSW,239,0.0,3.0,40,0.00,,,0.00,meteohub,2013-10-29 19:18:00,
2013-10-29 15:23:00,59.7,37.2,30.32,SW,225,1.0,2.0,43,0.00,,,0.00,meteohub,2013-10-29 19:23:00,
2013-10-29 15:28:00,59.7,38.3,30.32,WSW,249,0.0,2.0,45,0.00,,,0.00,meteohub,2013-10-29 19:28:00,
2013-10-29 15:33:00,59.9,38.5,30.32,WNW,283,0.0,2.0,45,0.00,,,0.00,meteohub,2013-10-29 19:33:00,
2013-10-29 15:38:00,60.1,36.9,30.32,WNW,288,0.0,2.0,42,0.00,,,0.00,meteohub,2013-10-29 19:38:00,
2013-10-29 15:44:00,60.1,36.9,30.32,West,280,1.0,2.0,42,0.00,,,0.00,meteohub,2013-10-29 19:44:00,
2013-10-29 15:49:00,59.9,36.7,30.32,WNW,283,0.0,2.0,42,0.00,,,0.00,meteohub,2013-10-29 19:49:00,
2013-10-29 15:54:00,59.9,37.4,30.32,West,278,0.0,2.0,43,0.00,,,0.00,meteohub,2013-10-29 19:54:00,
2013-10-29 15:59:00,59.7,36.0,30.32,WSW,249,0.0,2.0,41,0.00,,,0.00,meteohub,2013-10-29 19:59:00,
2013-10-29 16:04:00,59.7,36.5,30.31,West,263,0.0,2.0,42,0.00,,,0.00,meteohub,2013-10-29 20:04:00,
2013-10-29 16:09:00,59.7,37.2,30.31,WSW,252,0.0,1.0,43,0.00,,,0.00,meteohub,2013-10-29 20:09:00,
2013-10-29 16:14:00,59.9,39.6,30.31,WSW,252,0.0,1.0,47,0.00,,,0.00,meteohub,2013-10-29 20:14:00,
2013-10-29 16:19:00,59.9,36.7,30.31,WSW,253,0.0,1.0,42,0.00,,,0.00,meteohub,2013-10-29 20:19:00,
2013-10-29 16:24:00,59.9,36.1,30.31,WSW,252,0.0,1.0,41,0.00,,,0.00,meteohub,2013-10-29 20:24:00,
2013-10-29 16:29:00,59.9,36.7,30.31,WNW,286,0.0,1.0,42,0.00,,,0.00,meteohub,2013-10-29 20:29:00,
2013-10-29 16:34:00,59.7,37.2,30.31,WNW,287,0.0,1.0,43,0.00,,,0.00,meteohub,2013-10-29 20:34:00,
2013-10-29 16:39:00,59.5,38.1,30.31,WNW,286,0.0,1.0,45,0.00,,,0.00,meteohub,2013-10-29 20:39:00,
2013-10-29 16:44:00,59.5,38.1,30.31,WNW,286,0.0,1.0,45,0.00,,,0.00,meteohub,2013-10-29 20:44:00,
2013-10-29 16:49:00,59.2,37.9,30.31,WNW,287,0.0,0.0,45,0.00,,,0.00,meteohub,2013-10-29 20:49:00,
2013-10-29 16:54:00,59.2,38.5,30.31,WNW,286,0.0,0.0,46,0.00,,,0.00,meteohub,2013-10-29 20:54:00,
2013-10-29 17:00:00,58.6,38.5,30.31,WNW,285,0.0,0.0,47,0.00,,,0.00,meteohub,2013-10-29 21:00:00,
2013-10-29 17:05:00,58.3,38.7,30.31,WNW,285,0.0,0.0,48,0.00,,,0.00,meteohub,2013-10-29 21:05:00,
2013-10-29 17:10:00,57.9,40.5,30.31,WNW,285,0.0,0.0,52,0.00,,,0.00,meteohub,2013-10-29 21:10:00,
2013-10-29 17:15:00,57.6,39.6,30.31,WNW,285,0.0,0.0,51,0.00,,,0.00,meteohub,2013-10-29 21:15:00,
2013-10-29 17:20:00,57.0,43.3,30.31,WNW,285,0.0,0.0,60,0.00,,,0.00,meteohub,2013-10-29 21:20:00,
2013-10-29 17:25:00,56.5,41.9,30.32,WNW,285,0.0,0.0,58,0.00,,,0.00,meteohub,2013-10-29 21:25:00,
2013-10-29 17:30:00,55.9,41.9,30.32,WNW,285,0.0,0.0,59,0.00,,,0.00,meteohub,2013-10-29 21:30:00,
2013-10-29 17:35:00,55.2,41.2,30.32,WNW,285,0.0,0.0,59,0.00,,,0.00,meteohub,2013-10-29 21:35:00,
2013-10-29 17:40:00,54.7,41.0,30.32,WNW,285,0.0,0.0,60,0.00,,,0.00,meteohub,2013-10-29 21:40:00,
2013-10-29 17:45:00,54.1,41.0,30.32,WNW,285,0.0,0.0,61,0.00,,,0.00,meteohub,2013-10-29 21:45:00,
2013-10-29 17:50:00,53.4,40.3,30.32,WNW,285,0.0,0.0,61,0.00,,,0.00,meteohub,2013-10-29 21:50:00,
2013-10-29 17:55:00,52.9,39.7,30.32,SE,127,0.0,1.0,61,0.00,,,0.00,meteohub,2013-10-29 21:55:00,
2013-10-29 18:00:00,52.5,39.9,30.32,ESE,120,0.0,1.0,62,0.00,,,0.00,meteohub,2013-10-29 22:00:00,
2013-10-29 18:05:00,52.3,40.5,30.32,ESE,117,0.0,1.0,64,0.00,,,0.00,meteohub,2013-10-29 22:05:00,
2013-10-29 18:11:00,52.2,40.3,30.32,ESE,117,0.0,1.0,64,0.00,,,0.00,meteohub,2013-10-29 22:11:00,
2013-10-29 18:16:00,51.8,40.1,30.32,ESE,115,1.0,1.0,64,0.00,,,0.00,meteohub,2013-10-29 22:16:00,
2013-10-29 18:21:00,51.4,40.1,30.32,ESE,113,1.0,1.0,65,0.00,,,0.00,meteohub,2013-10-29 22:21:00,
2013-10-29 18:26:00,51.1,39.4,30.31,ESE,114,0.0,1.0,64,0.00,,,0.00,meteohub,2013-10-29 22:26:00,
2013-10-29 18:31:00,50.4,39.0,30.31,ESE,115,0.0,1.0,65,0.00,,,0.00,meteohub,2013-10-29 22:31:00,
2013-10-29 18:36:00,49.8,39.4,30.31,ESE,114,0.0,1.0,67,0.00,,,0.00,meteohub,2013-10-29 22:36:00,
2013-10-29 18:41:00,49.5,39.7,30.31,ESE,115,0.0,0.0,69,0.00,,,0.00,meteohub,2013-10-29 22:41:00,
2013-10-29 18:46:00,48.9,39.2,30.31,ESE,115,0.0,0.0,69,0.00,,,0.00,meteohub,2013-10-29 22:46:00,
2013-10-29 18:51:00,48.7,39.4,30.31,ESE,115,0.0,1.0,70,0.00,,,0.00,meteohub,2013-10-29 22:51:00,
2013-10-29 18:56:00,48.4,39.4,30.31,ESE,114,0.0,1.0,71,0.00,,,0.00,meteohub,2013-10-29 22:56:00,
2013-10-29 19:01:00,47.8,38.8,30.32,ESE,115,0.0,1.0,71,0.00,,,0.00,meteohub,2013-10-29 23:01:00,
2013-10-29 19:06:00,47.7,39.0,30.32,ESE,115,0.0,1.0,72,0.00,,,0.00,meteohub,2013-10-29 23:06:00,
2013-10-29 19:11:00,47.7,39.0,30.32,ESE,114,0.0,1.0,72,0.00,,,0.00,meteohub,2013-10-29 23:11:00,
2013-10-29 19:16:00,47.5,38.8,30.32,ESE,114,0.0,1.0,72,0.00,,,0.00,meteohub,2013-10-29 23:16:00,
2013-10-29 19:21:00,47.1,38.8,30.32,ESE,115,1.0,1.0,73,0.00,,,0.00,meteohub,2013-10-29 23:21:00,
2013-10-29 19:27:00,47.3,39.0,30.32,ESE,115,0.0,1.0,73,0.00,,,0.00,meteohub,2013-10-29 23:27:00,
2013-10-29 19:32:00,47.1,39.2,30.32,ESE,114,0.0,1.0,74,0.00,,,0.00,meteohub,2013-10-29 23:32:00,
2013-10-29 19:37:00,46.8,38.8,30.33,ESE,114,0.0,1.0,74,0.00,,,0.00,meteohub,2013-10-29 23:37:00,
2013-10-29 19:42:00,46.6,38.7,30.32,ESE,115,0.0,1.0,74,0.00,,,0.00,meteohub,2013-10-29 23:42:00,
2013-10-29 19:47:00,46.2,38.5,30.32,ESE,114,0.0,1.0,74,0.00,,,0.00,meteohub,2013-10-29 23:47:00,
2013-10-29 19:52:00,46.0,38.5,30.32,ESE,115,0.0,1.0,75,0.00,,,0.00,meteohub,2013-10-29 23:52:00,
2013-10-29 19:57:00,45.9,39.0,30.32,ESE,115,0.0,0.0,77,0.00,,,0.00,meteohub,2013-10-29 23:57:00,
2013-10-29 20:02:00,45.9,38.7,30.32,ESE,114,0.0,0.0,76,0.00,,,0.00,meteohub,2013-10-30 00:02:00,
2013-10-29 20:08:00,45.9,39.0,30.32,ESE,114,0.0,0.0,77,0.00,,,0.00,meteohub,2013-10-30 00:08:00,
2013-10-29 20:13:00,45.5,38.7,30.32,ESE,114,0.0,0.0,77,0.00,,,0.00,meteohub,2013-10-30 00:13:00,
2013-10-29 20:18:00,45.3,38.5,30.32,ESE,114,0.0,0.0,77,0.00,,,0.00,meteohub,2013-10-30 00:18:00,
2013-10-29 20:23:00,45.0,38.5,30.32,ESE,114,0.0,0.0,78,0.00,,,0.00,meteohub,2013-10-30 00:23:00,
2013-10-29 20:28:00,45.0,38.8,30.32,ESE,114,0.0,0.0,79,0.00,,,0.00,meteohub,2013-10-30 00:28:00,
2013-10-29 20:33:00,45.0,38.5,30.32,ESE,114,0.0,0.0,78,0.00,,,0.00,meteohub,2013-10-30 00:33:00,
2013-10-29 20:38:00,45.0,38.8,30.32,ESE,114,0.0,0.0,79,0.00,,,0.00,meteohub,2013-10-30 00:38:00,
2013-10-29 20:43:00,45.1,38.7,30.32,ESE,115,0.0,0.0,78,0.00,,,0.00,meteohub,2013-10-30 00:43:00,
2013-10-29 20:48:00,45.3,39.2,30.32,ESE,114,0.0,1.0,79,0.00,,,0.00,meteohub,2013-10-30 00:48:00,
2013-10-29 20:53:00,45.1,39.4,30.32,ESE,114,0.0,1.0,80,0.00,,,0.00,meteohub,2013-10-30 00:53:00,
2013-10-29 20:58:00,45.1,39.4,30.32,ESE,114,0.0,1.0,80,0.00,,,0.00,meteohub,2013-10-30 00:58:00,
2013-10-29 21:03:00,45.0,39.2,30.32,ESE,114,0.0,0.0,80,0.00,,,0.00,meteohub,2013-10-30 01:03:00,
2013-10-29 21:08:00,44.8,39.4,30.32,ESE,114,0.0,0.0,81,0.00,,,0.00,meteohub,2013-10-30 01:08:00,
2013-10-29 21:13:00,44.4,39.2,30.33,ESE,114,0.0,0.0,82,0.00,,,0.00,meteohub,2013-10-30 01:13:00,
2013-10-29 21:19:00,44.2,39.0,30.33,ESE,114,0.0,0.0,82,0.00,,,0.00,meteohub,2013-10-30 01:19:00,
2013-10-29 21:24:00,44.1,39.2,30.33,ESE,114,0.0,0.0,83,0.00,,,0.00,meteohub,2013-10-30 01:24:00,
2013-10-29 21:29:00,43.9,38.7,30.32,ESE,115,0.0,0.0,82,0.00,,,0.00,meteohub,2013-10-30 01:29:00,
2013-10-29 21:34:00,43.9,38.7,30.32,ESE,108,0.0,0.0,82,0.00,,,0.00,meteohub,2013-10-30 01:34:00,
2013-10-29 21:39:00,44.1,38.8,30.32,ESE,108,0.0,1.0,82,0.00,,,0.00,meteohub,2013-10-30 01:39:00,
2013-10-29 21:44:00,44.1,38.8,30.32,ESE,108,0.0,1.0,82,0.00,,,0.00,meteohub,2013-10-30 01:44:00,
2013-10-29 21:49:00,43.7,38.8,30.33,ESE,107,0.0,1.0,83,0.00,,,0.00,meteohub,2013-10-30 01:49:00,
2013-10-29 21:54:00,43.3,38.5,30.32,ESE,108,0.0,1.0,83,0.00,,,0.00,meteohub,2013-10-30 01:54:00,
2013-10-29 22:00:00,43.2,38.3,30.32,ESE,108,0.0,0.0,83,0.00,,,0.00,meteohub,2013-10-30 02:00:00,
2013-10-29 22:05:00,43.0,38.1,30.32,ESE,108,0.0,0.0,83,0.00,,,0.00,meteohub,2013-10-30 02:05:00,
2013-10-29 22:10:00,42.6,37.8,30.32,ESE,108,0.0,0.0,83,0.00,,,0.00,meteohub,2013-10-30 02:10:00,
2013-10-29 22:15:00,42.6,37.8,30.32,ESE,108,0.0,0.0,83,0.00,,,0.00,meteohub,2013-10-30 02:15:00,
2013-10-29 22:20:00,42.4,37.9,30.32,ESE,108,0.0,0.0,84,0.00,,,0.00,meteohub,2013-10-30 02:20:00,
2013-10-29 22:25:00,42.3,37.8,30.32,ESE,107,0.0,0.0,84,0.00,,,0.00,meteohub,2013-10-30 02:25:00,
2013-10-29 22:30:00,42.1,37.9,30.32,ESE,108,0.0,0.0,85,0.00,,,0.00,meteohub,2013-10-30 02:30:00,
2013-10-29 22:35:00,42.3,38.1,30.32,ESE,108,0.0,0.0,85,0.00,,,0.00,meteohub,2013-10-30 02:35:00,
2013-10-29 22:40:00,42.4,38.3,30.32,ESE,107,0.0,0.0,85,0.00,,,0.00,meteohub,2013-10-30 02:40:00,
2013-10-29 22:45:00,42.4,38.3,30.31,SSE,156,0.0,0.0,85,0.00,,,0.00,meteohub,2013-10-30 02:45:00,
2013-10-29 22:50:00,43.0,38.5,30.32,East,85,0.0,1.0,84,0.00,,,0.00,meteohub,2013-10-30 02:50:00,
2013-10-29 22:55:00,43.3,38.8,30.32,East,86,0.0,1.0,84,0.00,,,0.00,meteohub,2013-10-30 02:55:00,
2013-10-29 23:00:00,43.5,39.0,30.32,East,86,0.0,1.0,84,0.00,,,0.00,meteohub,2013-10-30 03:00:00,
2013-10-29 23:05:00,43.5,39.4,30.31,East,86,0.0,0.0,85,0.00,,,0.00,meteohub,2013-10-30 03:05:00,
2013-10-29 23:11:00,43.5,39.4,30.31,East,86,0.0,0.0,85,0.00,,,0.00,meteohub,2013-10-30 03:11:00,
2013-10-29 23:16:00,43.5,39.4,30.31,East,86,0.0,0.0,85,0.00,,,0.00,meteohub,2013-10-30 03:16:00,
2013-10-29 23:21:00,43.5,39.4,30.30,East,86,0.0,0.0,85,0.00,,,0.00,meteohub,2013-10-30 03:21:00,
2013-10-29 23:26:00,43.3,39.4,30.30,East,86,0.0,0.0,86,0.00,,,0.00,meteohub,2013-10-30 03:26:00,
2013-10-29 23:31:00,43.3,39.4,30.30,East,86,0.0,0.0,86,0.00,,,0.00,meteohub,2013-10-30 03:31:00,
2013-10-29 23:36:00,43.5,39.6,30.30,East,86,0.0,0.0,86,0.00,,,0.00,meteohub,2013-10-30 03:36:00,
2013-10-29 23:41:00,43.5,39.6,30.29,East,86,0.0,1.0,86,0.00,,,0.00,meteohub,2013-10-30 03:41:00,
2013-10-29 23:46:00,43.3,39.4,30.28,East,86,0.0,1.0,86,0.00,,,0.00,meteohub,2013-10-30 03:46:00,
2013-10-29 23:51:00,43.5,39.4,30.28,East,86,0.0,1.0,85,0.00,,,0.00,meteohub,2013-10-30 03:51:00,
2013-10-29 23:56:00,43.5,39.6,30.28,North,1,0.0,0.0,86,0.00,,,0.00,meteohub,2013-10-30 03:56:00,